• In Uzbekistan
  • List of Countries
  • For 7 days
  • Water Temperature
  • Satellite Maps
  • Weather Map
  • Weather Widgets
  • user-avatar
    Login

    Hourly Weather Bad Rothenfelde

    Today, 22 April, Sunday

    Time Temperature Precipitation Wind Pressure Humidity
    00:00 +12°C° 0 mm 2 mps 755 mmHg 76%
    01:00 +10°C° 0 mm 2 mps 754 mmHg 76%
    02:00 +10°C° 0 mm 2 mps 754 mmHg 76%
    03:00 +10°C° 0 mm 2 mps 753 mmHg 77%
    04:00 +10°C° 0 mm 2 mps 753 mmHg 77%
    05:00 +12°C° 0 mm 2 mps 753 mmHg 77%
    06:00 +12°C° 0 mm 3 mps 752 mmHg 77%
    07:00 +13°C° 0 mm 3 mps 752 mmHg 77%
    08:00 +16°C° 0 mm 3 mps 751 mmHg 73%
    09:00 +18°C° 0 mm 3 mps 751 mmHg 70%
    10:00 +21°C° 0 mm 3 mps 751 mmHg 66%
    11:00 +22°C° 0.3 mm 3 mps 750 mmHg 62%
    12:00 +25°C° 0.3 mm 3 mps 750 mmHg 57%
    13:00 +26°C° 0.3 mm 4 mps 750 mmHg 52%
    14:00 +26°C° 0.1 mm 3 mps 749 mmHg 51%
    15:00 +27°C° 0.1 mm 3 mps 749 mmHg 50%
    16:00 +27°C° 0.1 mm 3 mps 748 mmHg 49%
    17:00 +25°C° 0.3 mm 3 mps 748 mmHg 56%
    18:00 +24°C° 0.3 mm 3 mps 748 mmHg 63%
    19:00 +21°C° 0.3 mm 3 mps 748 mmHg 69%
    20:00 +20°C° 0.6 mm 3 mps 748 mmHg 74%
    21:00 +18°C° 0.6 mm 3 mps 748 mmHg 79%
    22:00 +17°C° 0.6 mm 2 mps 748 mmHg 84%
    23:00 +17°C° 0 mm 3 mps 748 mmHg 85%

    Tomorrow, 23 April, Monday

    Time Temperature Precipitation Wind Pressure Humidity
    00:00 +16°C° 0 mm 3 mps 749 mmHg 87%
    01:00 +16°C° 0 mm 3 mps 749 mmHg 88%
    02:00 +16°C° 0.1 mm 3 mps 749 mmHg 88%
    03:00 +14°C° 0.1 mm 3 mps 749 mmHg 89%
    04:00 +14°C° 0.1 mm 4 mps 748 mmHg 89%
    05:00 +14°C° 0 mm 4 mps 749 mmHg 88%
    06:00 +14°C° 0 mm 4 mps 749 mmHg 88%
    07:00 +13°C° 0 mm 5 mps 749 mmHg 87%
    08:00 +14°C° 0 mm 5 mps 750 mmHg 81%
    09:00 +15°C° 0 mm 5 mps 750 mmHg 75%
    10:00 +15°C° 0 mm 6 mps 750 mmHg 70%
    11:00 +16°C° 0 mm 6 mps 751 mmHg 66%
    12:00 +16°C° 0 mm 6 mps 751 mmHg 62%
    13:00 +17°C° 0 mm 6 mps 751 mmHg 58%
    14:00 +16°C° 0 mm 6 mps 751 mmHg 58%
    15:00 +16°C° 0 mm 6 mps 751 mmHg 59%
    16:00 +16°C° 0 mm 5 mps 752 mmHg 59%
    17:00 +15°C° 0 mm 5 mps 752 mmHg 62%
    18:00 +14°C° 0 mm 4 mps 752 mmHg 65%
    19:00 +13°C° 0 mm 4 mps 752 mmHg 68%
    20:00 +11°C° 0 mm 3 mps 753 mmHg 71%
    21:00 +10°C° 0 mm 2 mps 753 mmHg 74%
    22:00 +9°C° 0 mm 2 mps 754 mmHg 77%
    23:00 +9°C° 0 mm 2 mps 754 mmHg 77%

    Day after tomorrow, 24 April, Tuesday

    Time Temperature Precipitation Wind Pressure Humidity
    00:00 +8°C° 0 mm 2 mps 754 mmHg 77%
    01:00 +8°C° 0 mm 2 mps 753 mmHg 77%
    02:00 +8°C° 0 mm 3 mps 753 mmHg 77%
    03:00 +8°C° 0 mm 3 mps 753 mmHg 76%
    04:00 +8°C° 0 mm 3 mps 753 mmHg 75%
    05:00 +7°C° 0 mm 4 mps 753 mmHg 75%
    06:00 +8°C° 0 mm 4 mps 753 mmHg 75%
    07:00 +9°C° 0 mm 5 mps 753 mmHg 75%
    08:00 +10°C° 0 mm 5 mps 753 mmHg 71%
    09:00 +12°C° 0 mm 5 mps 753 mmHg 67%
    10:00 +14°C° 0 mm 6 mps 753 mmHg 63%
    11:00 +14°C° 0 mm 6 mps 753 mmHg 63%
    12:00 +15°C° 0 mm 5 mps 753 mmHg 64%
    13:00 +15°C° 0 mm 5 mps 752 mmHg 64%
    14:00 +16°C° 0 mm 5 mps 752 mmHg 63%
    15:00 +17°C° 0 mm 5 mps 752 mmHg 62%
    16:00 +18°C° 0 mm 4 mps 751 mmHg 62%
    17:00 +17°C° 0 mm 4 mps 751 mmHg 67%
    18:00 +16°C° 0 mm 3 mps 751 mmHg 72%
    19:00 +16°C° 0 mm 2 mps 751 mmHg 77%
    20:00 +14°C° 0 mm 2 mps 751 mmHg 80%
    21:00 +13°C° 0 mm 1 mps 751 mmHg 83%
    22:00 +12°C° 0 mm 1 mps 751 mmHg 86%
    23:00 +12°C° 0 mm 2 mps 750 mmHg 85%

    25 April, Wednesday

    Time Temperature Precipitation Wind Pressure Humidity
    00:00 +12°C° 0 mm 2 mps 750 mmHg 84%
    01:00 +11°C° 0 mm 3 mps 749 mmHg 82%
    02:00 +11°C° 0 mm 3 mps 749 mmHg 83%
    03:00 +11°C° 0 mm 3 mps 748 mmHg 84%
    04:00 +11°C° 0 mm 4 mps 748 mmHg 84%
    05:00 +12°C° 0 mm 4 mps 747 mmHg 83%
    06:00 +12°C° 0 mm 5 mps 747 mmHg 81%
    07:00 +13°C° 0 mm 5 mps 747 mmHg 79%
    08:00 +14°C° 0 mm 6 mps 747 mmHg 74%
    09:00 +16°C° 0 mm 7 mps 747 mmHg 69%
    10:00 +17°C° 0 mm 8 mps 747 mmHg 63%
    11:00 +16°C° 0.1 mm 7 mps 747 mmHg 67%
    12:00 +16°C° 0.1 mm 7 mps 747 mmHg 70%
    13:00 +15°C° 0.1 mm 7 mps 746 mmHg 73%
    14:00 +15°C° 0.2 mm 7 mps 747 mmHg 73%
    15:00 +15°C° 0.2 mm 7 mps 747 mmHg 72%
    16:00 +15°C° 0.2 mm 7 mps 747 mmHg 72%
    17:00 +14°C° 0.1 mm 6 mps 747 mmHg 73%
    18:00 +13°C° 0.1 mm 5 mps 747 mmHg 74%
    19:00 +10°C° 0.1 mm 5 mps 748 mmHg 75%
    20:00 +10°C° 0 mm 4 mps 748 mmHg 78%
    21:00 +9°C° 0 mm 3 mps 749 mmHg 82%
    22:00 +8°C° 0 mm 2 mps 749 mmHg 85%
    23:00 +7°C° 0 mm 2 mps 749 mmHg 86%

    26 April, Thursday

    Time Temperature Precipitation Wind Pressure Humidity
    00:00 +7°C° 0 mm 2 mps 749 mmHg 86%
    01:00 +7°C° 0 mm 3 mps 749 mmHg 86%
    02:00 +7°C° 0 mm 3 mps 749 mmHg 87%
    03:00 +6°C° 0 mm 4 mps 749 mmHg 88%
    04:00 +6°C° 0 mm 4 mps 749 mmHg 89%
    05:00 +6°C° 0.1 mm 5 mps 749 mmHg 87%
    06:00 +7°C° 0.1 mm 5 mps 749 mmHg 85%
    07:00 +7°C° 0.1 mm 6 mps 749 mmHg 84%
    08:00 +8°C° 0.3 mm 7 mps 749 mmHg 79%
    09:00 +9°C° 0.3 mm 7 mps 750 mmHg 74%
    10:00 +10°C° 0.3 mm 8 mps 750 mmHg 69%
    11:00 +10°C° 0.3 mm 8 mps 750 mmHg 65%
    12:00 +11°C° 0.3 mm 8 mps 750 mmHg 61%
    13:00 +12°C° 0.3 mm 7 mps 750 mmHg 57%
    14:00 +12°C° 0.2 mm 7 mps 750 mmHg 56%
    15:00 +12°C° 0.2 mm 7 mps 750 mmHg 55%
    16:00 +12°C° 0.2 mm 7 mps 750 mmHg 54%
    17:00 +11°C° 0.1 mm 6 mps 750 mmHg 60%
    18:00 +11°C° 0.1 mm 4 mps 751 mmHg 65%
    19:00 +10°C° 0.1 mm 3 mps 751 mmHg 70%
    20:00 +8°C° 0 mm 3 mps 751 mmHg 73%
    21:00 +7°C° 0 mm 3 mps 751 mmHg 77%
    22:00 +6°C° 0 mm 2 mps 752 mmHg 80%
    23:00 +5°C° 0 mm 3 mps 752 mmHg 81%

    27 April, Friday

    Time Temperature Precipitation Wind Pressure Humidity
    00:00 +5°C° 0 mm 3 mps 752 mmHg 82%
    01:00 +4°C° 0 mm 3 mps 751 mmHg 82%
    02:00 +4°C° 0 mm 3 mps 751 mmHg 84%
    03:00 +4°C° 0 mm 3 mps 751 mmHg 86%
    04:00 +4°C° 0 mm 4 mps 751 mmHg 88%
    05:00 +4°C° 0 mm 4 mps 751 mmHg 87%
    06:00 +5°C° 0 mm 4 mps 751 mmHg 85%
    07:00 +6°C° 0 mm 5 mps 751 mmHg 83%
    08:00 +7°C° 0.1 mm 5 mps 751 mmHg 78%
    09:00 +8°C° 0.1 mm 5 mps 751 mmHg 73%
    10:00 +10°C° 0.1 mm 5 mps 751 mmHg 67%
    11:00 +10°C° 0.4 mm 5 mps 751 mmHg 65%
    12:00 +12°C° 0.4 mm 5 mps 751 mmHg 62%
    13:00 +12°C° 0.4 mm 5 mps 751 mmHg 60%
    14:00 +12°C° 0.6 mm 5 mps 751 mmHg 61%
    15:00 +12°C° 0.6 mm 5 mps 751 mmHg 61%
    16:00 +12°C° 0.6 mm 4 mps 751 mmHg 62%
    17:00 +11°C° 0.6 mm 4 mps 751 mmHg 69%
    18:00 +10°C° 0.6 mm 3 mps 751 mmHg 76%
    19:00 +9°C° 0.6 mm 3 mps 751 mmHg 82%
    20:00 +8°C° 0.1 mm 2 mps 752 mmHg 85%
    21:00 +7°C° 0.1 mm 2 mps 752 mmHg 88%
    22:00 +6°C° 0.1 mm 2 mps 753 mmHg 91%
    23:00 +5°C° 0 mm 2 mps 753 mmHg 92%
    Show more